This is the latest recevied weather packets stored in our database for station/object K3RUP-1. If no packets are shown the sender has not sent any weather packets the latest 10 day(s).
| Time | Temp. | Humidity | Pressure | Rain* | Wind** | Luminosity | Snow |
|---|---|---|---|---|---|---|---|
| 1777308817 | 20° C | 60% | 1023.9 hPa | 0 mm | - | 690 W/m² | - |
| 1777308512 | 18.33° C | 59% | 1024.1 hPa | 0 mm | - | 677 W/m² | - |
| 1777308207 | 18.33° C | 61% | 1023.8 hPa | 0 mm | - | 663 W/m² | - |
| 1777307903 | 19.44° C | 59% | 1024.1 hPa | 0 mm | - | 654 W/m² | - |
| 1777307602 | 18.33° C | 64% | 1024 hPa | 0 mm | - | 646 W/m² | - |
| 1777307298 | 18.89° C | 60% | 1023.8 hPa | 0 mm | - | 672 W/m² | - |
| 1777306995 | 18.89° C | 63% | 1023.9 hPa | 0 mm | - | 672 W/m² | - |
| 1777306693 | 18.33° C | 64% | 1023.9 hPa | 0 mm | - | 633 W/m² | - |
| 1777306389 | 18.89° C | 60% | 1023.8 hPa | 0 mm | - | 590 W/m² | - |
| 1777306083 | 18.89° C | 64% | 1023.8 hPa | 0 mm | - | 626 W/m² | - |
| 1777305780 | 17.78° C | 64% | 1024 hPa | 0 mm | - | 671 W/m² | - |
| 1777305476 | 18.33° C | 67% | 1024 hPa | 0 mm | - | 709 W/m² | - |
| 1777305171 | 18.33° C | 66% | 1024.4 hPa | 0 mm | - | 730 W/m² | - |
| 1777304866 | 18.33° C | 65% | 1024.4 hPa | 0 mm | - | 715 W/m² | - |
| 1777304563 | 18.33° C | 68% | 1024.3 hPa | 0 mm | - | 723 W/m² | - |
| 1777304260 | 17.78° C | 66% | 1024.4 hPa | 0 mm | - | 732 W/m² | - |
| 1777303957 | 18.33° C | 66% | 1024.5 hPa | 0 mm | - | 745 W/m² | - |
| 1777303654 | 17.78° C | 68% | 1024.5 hPa | 0 mm | - | 759 W/m² | - |
| 1777303352 | 17.22° C | 69% | 1024.5 hPa | 0 mm | - | 720 W/m² | - |
| 1777303049 | 17.78° C | 71% | 1024.6 hPa | 0 mm | - | 756 W/m² | - |
| 1777302747 | 17.22° C | 74% | 1024.6 hPa | 0 mm | - | 780 W/m² | - |
| 1777302445 | 16.67° C | 76% | 1024.7 hPa | 0 mm | - | 780 W/m² | - |
| 1777302142 | 16.11° C | 78% | 1024.6 hPa | 0 mm | - | 600 W/m² | - |
| 1777301839 | 15.56° C | 77% | 1024.8 hPa | 0 mm | - | 324 W/m² | - |
| 1777301537 | 15.56° C | 79% | 1024.5 hPa | 0 mm | - | 202 W/m² | - |
* Rain latest hour (hover to see other rain measurements)
** Current wind speed in m/s (hover to see current wind gust speed)